Regional Weather Roundup
Issued by NWS

Home | Current Version | Previous Version | Graphics & Text | Print | Product List | Glossary On
Versions: 1 2 3 4 5 6 7 8 9 10 11 12 13 14 15 16 17 18 19 20 21 22 23 24 25 26 27 28 29 30 31 32 33 34 35 36 37 38 39 40 41 42 43 44 45 46 47 48 49 50
000
ASUS43 KFSD 251402
RWRSD

WEATHER ROUNDUP FOR SOUTH DAKOTA
NATIONAL WEATHER SERVICE SIOUX FALLS SD
900 AM CDT SAT OCT 25 2014

NOTE: "FAIR" INDICATES FEW OR NO CLOUDS BELOW 12,000 FEET WITH NO
SIGNIFICANT WEATHER AND/OR OBSTRUCTIONS TO VISIBILITY.


SDZ001>005-009-010-012>017-251500-
NORTHWEST AND NORTH CENTRAL SOUTH DAKOTA

CITY           SKY/WX    TMP DP  RH WIND       PRES   REMARKS
BUFFALO          N/A     42  30  62 CALM      30.08S
FAITH            N/A     48  30  49 CALM      30.16R
MOBRIDGE       CLEAR     44  34  67 N6        30.14R
$$

SDZ012>016-024>037-041>051-057-063-072>074-251500-
SOUTHWEST AND SOUTH CENTRAL SOUTH DAKOTA

CITY           SKY/WX    TMP DP  RH WIND       PRES   REMARKS
RAPID CTY ARPT PTCLDY    40  30  67 W3        30.17R
PIERRE         CLEAR     42  36  79 SW6       30.15R
CUSTER         CLEAR     36  28  73 NW5       30.21R
PHILIP         PTCLDY    33  29  85 W5        30.17S WCI  29
PINE RIDGE     CLEAR     28  26  92 E3        30.18S
SPEARFISH      FAIR      39  32  75 SW3       30.15S
WINNER         FAIR      42  34  73 W6        30.16R
$$

SDZ004>011-016>023-039-040-251500-
NORTHEAST SOUTH DAKOTA

CITY           SKY/WX    TMP DP  RH WIND       PRES   REMARKS
ABERDEEN       CLEAR     43  34  70 CALM      30.15R
WATERTOWN      CLEAR     47  39  74 NW6       30.12R
SISSETON         N/A     51  34  52 NW10      30.11R
$$

SDZ017-020-022-023-036>040-048>070-251500-
SOUTHEAST SOUTH DAKOTA

CITY           SKY/WX    TMP DP  RH WIND       PRES   REMARKS
SIOUX FALLS    MOSUNNY   47  42  83 W3        30.13R
HURON          CLEAR     44  37  76 NW5       30.14R
CHAMBERLAIN    CLEAR     40  35  81 W3        30.15R
MITCHELL       CLEAR     44  39  82 W3        30.16R
YANKTON        SUNNY     45  39  81 NW7       30.14R
$$

ABBREVIATIONS USED IN REMARKS
   TC - TEMPERATURE IN CELSIUS
  WCI - WIND CHILL INDEX
   HX - HEAT INDEX
  VSB - VISIBILITY




USA.gov is the U.S. government's official web portal to all federal, state and local government web resources and services.